This demonstration page uses our WeatherBlox Daily Observations layout. Learn more.

39.92423, -83.80882

Hourly Observations for May 12, 2019

Temp ( °F °C ) Dew Point ( °F °C ) Humidity (%) Winds ( mph kmh ) Pressure ( in mb ) Visibility ( mi km ) Precip ( " mm )
12:22 am 00:22 Cloudy with Light Rain 45 7 43 6 93 93 NE 14 22 29.84 1011 10 16.0934 0.01 0.254
12:56 am 00:56 Cloudy with Light Rain 44 6.7 43 6.1 96 96 NE 16 26 29.83 1010 9 14.48406 0.01 0.254
1:56 am 01:56 Cloudy with Light Rain 44 6.7 43 6.1 96 96 NE 16 26 29.8 1009 10 16.0934 0 0.0254
2:56 am 02:56 Cloudy with Light Rain 44 6.7 44 6.7 100 100 NE 13 20 29.76 1008 7 11.26538 0.01 0.254
3:56 am 03:56 Cloudy with Light Rain 46 7.8 46 7.8 100 100 ENE 12 19 29.74 1007 8 12.87472 0.01 0.254
4:56 am 04:56 Cloudy with Light Rain 46 7.8 46 7.8 100 100 ENE 7 11 29.74 1007 10 16.0934 0 0.0254
5:56 am 05:56 Cloudy 47 8.3 47 8.3 100 100 NE 9 15 29.74 1007 10 16.0934 0 0.0254
6:08 am 06:08 Cloudy 46 8 46 8 100 100 NE 10 17 29.75 1007 10 16.0934 0 0
6:56 am 06:56 Cloudy 46 7.8 46 7.8 100 100 NE 12 19 29.75 1007 10 16.0934 0 0
7:56 am 07:56 Cloudy 47 8.3 46 7.8 97 97 NE 9 15 29.76 1008 10 16.0934 0 0
8:56 am 08:56 Cloudy 48 8.9 47 8.3 96 96 NE 8 13 29.76 1008 10 16.0934 0 0
9:56 am 09:56 Cloudy 49 9.4 48 8.9 97 97 N 6 9 29.77 1008 10 16.0934 0 0
10:56 am 10:56 Cloudy 50 10 48 8.9 93 93 NNE 5 7 29.76 1008 10 16.0934 0 0
11:56 am 11:56 Cloudy 51 10.6 49 9.4 92 92 NNW 5 7 29.77 1008 10 16.0934 0 0
12:56 pm 12:56 Cloudy 52 11.1 49 9.4 89 89 NW 6 9 29.77 1008 10 16.0934 0 0
1:56 pm 13:56 Cloudy with Light Rain 52 11.1 51 10.6 97 97 WNW 6 9 29.76 1008 5 8.0467 0.02 0.508
2:28 pm 14:28 Cloudy with Mist and Fog 52 11 52 11 100 100 NW 7 11 29.76 1008 5 8.0467 0 0.0254
2:56 pm 14:56 Cloudy with Light Rain 51 10.6 50 10 96 96 NW 7 11 29.77 1008 4 6.43736 0 0.0254
3:17 pm 15:17 Cloudy with Light Rain 52 11 50 10 94 94 N 3 6 29.76 1008 10 16.0934 0.01 0.254
3:36 pm 15:36 Cloudy with Light Rain 52 11 50 10 94 94 NNW 5 7 29.76 1008 9 14.48406 0.02 0.508
3:56 pm 15:56 Cloudy with Light Rain 51 10.6 50 10 96 96 NNW 8 13 29.75 1008 10 16.0934 0.02 0.508
4:04 pm 16:04 Cloudy with Light Rain 52 11 50 10 94 94 NNW 6 9 29.75 1007 10 16.0934 0 0.0254
4:22 pm 16:22 Cloudy with Light Rain 52 11 50 10 94 94 NNW 6 9 29.75 1007 10 16.0934 0.01 0.254
4:48 pm 16:48 Cloudy 52 11 50 10 94 94 NW 6 9 29.75 1007 10 16.0934 0.01 0.254
4:56 pm 16:56 Cloudy 51 10.6 50 10 96 96 WNW 6 9 29.75 1008 10 16.0934 0.01 0.254
5:16 pm 17:16 Cloudy with Light Rain 52 11 50 10 94 94 NNW 6 9 29.74 1007 6 9.65604 0 0.0254
5:56 pm 17:56 Cloudy 51 10.6 50 10 96 96 W 3 6 29.75 1008 9 14.48406 0 0.0254
6:27 pm 18:27 Cloudy 52 11 50 10 94 94 WSW 5 7 29.76 1008 7 11.26538 0 0
6:37 pm 18:37 Cloudy with Mist and Fog 52 11 50 10 94 94 W 5 7 29.75 1007 5 8.0467 0 0
6:56 pm 18:56 Cloudy with Light Rain 51 10.6 51 10.6 100 100 W 5 7 29.75 1007 7 11.26538 0.01 0.254
7:04 pm 19:04 Cloudy with Light Rain 52 11 50 10 94 94 W 7 11 29.75 1007 9 14.48406 0.01 0.254
7:31 pm 19:31 Cloudy with Light Rain 52 11 50 10 94 94 WNW 5 7 29.73 1007 10 16.0934 0.01 0.254
7:34 pm 19:34 Cloudy with Light Rain 52 11 50 10 94 94 WNW 6 9 29.73 1007 10 16.0934 0.01 0.254
7:53 pm 19:53 Cloudy with Light Rain 52 11 50 10 94 94 W 6 9 29.74 1007 10 16.0934 0.01 0.254
7:56 pm 19:56 Cloudy with Light Rain 51 10.6 50 10 96 96 W 5 7 29.74 1007 10 16.0934 0.01 0.254
8:11 pm 20:11 Cloudy 52 11 50 10 94 94 W 5 7 29.74 1007 10 16.0934 0.01 0.254
8:42 pm 20:42 Cloudy 52 11 50 10 94 94 W 3 6 29.75 1007 10 16.0934 0.01 0.254
8:56 pm 20:56 Cloudy 50 10 50 10 100 100 W 6 9 29.75 1008 9 14.48406 0.01 0.254
9:41 pm 21:41 Cloudy with Mist and Fog 50 10 50 10 100 100 WSW 7 11 29.76 1008 4 6.43736 0 0
9:56 pm 21:56 Cloudy with Light Rain 50 10 50 10 100 100 W 7 11 29.76 1008 4 6.43736 0 0.0254
10:12 pm 22:12 Cloudy with Light Rain 50 10 50 10 100 100 WSW 7 11 29.76 1008 5 8.0467 0 0.0254
10:22 pm 22:22 Cloudy with Light Rain 50 10 50 10 100 100 W 6 9 29.77 1008 5 8.0467 0 0.0254
10:56 pm 22:56 Cloudy 50 10 50 10 100 100 W 7 11 29.77 1008 10 16.0934 0 0.0254
11:16 pm 23:16 Cloudy 50 10 50 10 100 100 W 6 9 29.77 1008 10 16.0934 0 0
11:33 pm 23:33 Cloudy 50 10 50 10 100 100 W 8 13 29.77 1008 9 14.48406 0 0
11:56 pm 23:56 Cloudy 50 10 50 10 100 100 WSW 8 13 29.76 1008 9 14.48406 0 0

Powered by AerisWeather